TimeEDT,TemperatureF,Dew PointF,Humidity,Sea Level PressureIn,VisibilityMPH,Wind Direction,Wind SpeedMPH,Gust SpeedMPH,PrecipitationIn,Events,Conditions,WindDirDegrees,DateUTC
12:52 AM,34.0,30.0,85,29.92,10.0,SSW,3.5,-,N/A,,Scattered Clouds,200,2012-10-17 04:52:00
1:52 AM,30.9,28.0,89,29.93,10.0,South,3.5,-,N/A,,Clear,190,2012-10-17 05:52:00
2:52 AM,30.0,27.0,88,29.93,10.0,Calm,Calm,-,N/A,,Clear,0,2012-10-17 06:52:00
3:52 AM,30.0,26.1,85,29.94,10.0,Calm,Calm,-,N/A,,Clear,0,2012-10-17 07:52:00
4:52 AM,28.0,25.0,88,29.96,10.0,Calm,Calm,-,N/A,,Clear,0,2012-10-17 08:52:00
5:52 AM,28.0,25.0,88,29.97,10.0,Calm,Calm,-,N/A,,Clear,0,2012-10-17 09:52:00
6:52 AM,27.0,25.0,92,29.97,10.0,Calm,Calm,-,N/A,,Clear,0,2012-10-17 10:52:00
7:52 AM,28.9,27.0,92,29.99,10.0,Calm,Calm,-,0.00,,Clear,0,2012-10-17 11:52:00
8:52 AM,36.0,30.9,82,29.99,10.0,Calm,Calm,-,N/A,,Clear,0,2012-10-17 12:52:00
9:52 AM,42.1,34.0,73,30.00,10.0,Calm,Calm,-,N/A,,Clear,0,2012-10-17 13:52:00
10:52 AM,48.0,32.0,54,29.99,10.0,Calm,Calm,-,N/A,,Clear,0,2012-10-17 14:52:00
11:52 AM,50.0,33.1,52,29.98,10.0,Calm,Calm,-,N/A,,Clear,0,2012-10-17 15:52:00
12:52 PM,53.1,32.0,45,29.97,10.0,Calm,Calm,-,N/A,,Clear,0,2012-10-17 16:52:00
1:52 PM,54.0,32.0,43,29.95,10.0,Calm,Calm,-,N/A,,Clear,0,2012-10-17 17:52:00
2:52 PM,57.0,34.0,42,29.93,10.0,ESE,3.5,-,N/A,,Clear,120,2012-10-17 18:52:00
3:52 PM,57.0,33.1,40,29.94,10.0,Calm,Calm,-,N/A,,Clear,0,2012-10-17 19:52:00
4:52 PM,57.0,32.0,39,29.94,10.0,Calm,Calm,-,N/A,,Partly Cloudy,0,2012-10-17 20:52:00
5:52 PM,46.9,39.9,77,29.97,10.0,Calm,Calm,-,N/A,,Clear,0,2012-10-17 21:52:00
6:52 PM,42.1,37.9,85,30.00,10.0,Calm,Calm,-,N/A,,Clear,0,2012-10-17 22:52:00
7:52 PM,39.0,36.0,89,30.01,10.0,Calm,Calm,-,N/A,,Clear,0,2012-10-17 23:52:00
8:52 PM,39.9,36.0,86,30.01,10.0,Calm,Calm,-,N/A,,Overcast,0,2012-10-18 00:52:00
9:52 PM,41.0,37.0,86,30.01,10.0,Calm,Calm,-,N/A,,Overcast,0,2012-10-18 01:52:00
10:52 PM,42.1,37.9,85,30.01,10.0,Calm,Calm,-,N/A,,Overcast,0,2012-10-18 02:52:00
11:52 PM,39.0,36.0,89,30.01,10.0,Calm,Calm,-,N/A,,Partly Cloudy,0,2012-10-18 03:52:00